Regional Weather Roundup
Issued by NWS Little Rock, AR

Home | Current Version | Previous Version | Text Only | Print | Product List | Glossary On
Versions: 1 2 3 4 5 6 7 8 9 10 11 12 13 14 15 16 17 18 19 20 21 22 23 24 25 26 27 28 29 30 31 32
000
ASUS44 KLZK 230012
RWRLZK

WEATHER ROUNDUP FOR ARKANSAS
NATIONAL WEATHER SERVICE LITTLE ROCK AR
700 PM CDT THU JUN 22 2017

NOTE: "FAIR" INDICATES FEW OR NO CLOUDS BELOW 12,000 FEET WITH NO
SIGNIFICANT WEATHER AND/OR OBSTRUCTIONS TO VISIBILITY.

ARZ001-003-010-029-230100-
NORTHWEST ARKANSAS

CITY           SKY/WX    TMP DP  RH WIND       PRES   REMARKS
FAYETTEVILLE   MOSUNNY   84  72  67 E6        29.69S HX  89
6HR MIN TEMP:  79; 6HR MAX TEMP:  86;

FORT SMITH     MOSUNNY   84  71  65 E8        29.64S HX  89
6HR MIN TEMP:  83; 6HR MAX TEMP:  89;

HARRISON       CLOUDY    77  71  82 S9        29.74R
6HR MIN TEMP:  77; 6HR MAX TEMP:  84; 6HR PCP: TRACE;

BENTONVILLE    MOSUNNY   84  70  61 SE6       29.71S HX  88
6HR MIN TEMP:  81; 6HR MAX TEMP:  88;

ROGERS         MOSUNNY   85  71  63 SE6       29.71S HX  90
6HR MIN TEMP:  81; 6HR MAX TEMP:  87;

SILOAM SPGS    MOSUNNY   84  70  61 CALM      29.69R HX  88
6HR MIN TEMP:  82; 6HR MAX TEMP:  88;

HIGHFILL       MOSUNNY   86  71  60 SE5       29.70S HX  91
6HR MIN TEMP:  83; 6HR MAX TEMP:  87;

SPRINGDALE     MOSUNNY   84  72  65 SE7       29.71S HX  89
$$

ARZ004-005-016-230100-
NORTH CENTRAL ARKANSAS

CITY           SKY/WX    TMP DP  RH WIND       PRES   REMARKS
BATESVILLE     CLOUDY    79  75  89 E7        29.73R
6HR MIN TEMP:  79; 6HR MAX TEMP:  90; 6HR PCP:  0.02;

FLIPPIN        CLOUDY    75  70  83 CALM      29.70S
                                      6HR PCP:  0.19;

MTN HOME       CLOUDY    75  72  90 S3        29.72F
6HR MIN TEMP:  73; 6HR MAX TEMP:  85; 6HR PCP:  0.13;

$$

ARZ040-041-230100-
WEST CENTRAL ARKANSAS

CITY           SKY/WX    TMP DP  RH WIND       PRES   REMARKS
MENA           CLOUDY    81  81 100 E3        29.66F HX  91
MOUNT IDA      MOSUNNY   83  74  74 VRB3      29.63F HX  89
6HR MIN TEMP:  78; 6HR MAX TEMP:  86; 6HR PCP:  0.01;

$$

ARZ009-017-025-026-028-230100-
NORTHEAST ARKANSAS

CITY           SKY/WX    TMP DP  RH WIND       PRES   REMARKS
CORNING        LGT RAIN  82  75  78 SE9       29.73S HX  89
JONESBORO      LGT RAIN  81  78  91 SE5       29.72S HX  89
6HR MIN TEMP:  81; 6HR MAX TEMP:  91; 6HR PCP:  0.03;

WALNUT RIDGE   PTSUNNY   81  72  74 S8        29.72S
6HR MIN TEMP:  79; 6HR MAX TEMP:  90;

BLYTHEVILLE    LGT RAIN  85  76  74 SE8       29.75R HX  94
6HR MIN TEMP:  80; 6HR MAX TEMP:  89; 6HR PCP: TRACE;

$$

ARZ022-023-033-042-044-230100-
CENTRAL ARKANSAS

CITY           SKY/WX    TMP DP  RH WIND       PRES   REMARKS
LITTLE ROCK    CLOUDY    75  75 100 NE8       29.65F
6HR MIN TEMP:  74; 6HR MAX TEMP:  86; 6HR PCP:  0.36;

N LITTLE ROCK    N/A     73  71  95 E9G21     29.65F
6HR MIN TEMP:  73; 6HR MAX TEMP:  85;

JACKSONVILLE   DRIZZLE   74  74 100 E13       29.66S
6HR MIN TEMP:  74; 6HR MAX TEMP:  85; 6HR PCP:  0.43;

CONWAY           N/A     79  75  89 SE9G17    29.66S
SEARCY         HVY RAIN  75  75 100 NE6       29.71S FOG
6HR MIN TEMP:  75; 6HR MAX TEMP:  89; 6HR PCP:  0.86;

HOT SPRINGS    CLOUDY    80  75  84 E7        29.64F HX  85
6HR MIN TEMP:  80; 6HR MAX TEMP:  87; 6HR PCP: TRACE;

RUSSELLVILLE   LGT RAIN  78  76  93 E5        29.66F
6HR MIN TEMP:  78; 6HR MAX TEMP:  86; 6HR PCP: TRACE;

CLINTON        PTSUNNY   81  75  83 E7        29.70S HX  86
$$

ARZ036-230100-
EAST ARKANSAS

CITY           SKY/WX    TMP DP  RH WIND       PRES   REMARKS
WEST MEMPHIS   LGT RAIN  79  77  94 SE8       29.72S
6HR MIN TEMP:  76; 6HR MAX TEMP:  88; 6HR PCP:  0.13;

$$

ARZ050-053-066-070-073-230100-
SOUTHWEST ARKANSAS

CITY           SKY/WX    TMP DP  RH WIND       PRES   REMARKS
ARKADELPHIA    CLOUDY    77  76  96 NE6       29.61F
6HR MIN TEMP:  77; 6HR MAX TEMP:  87;

CAMDEN         CLOUDY    79  75  89 NE5       29.58F
TEXARKANA      CLOUDY    81  75  82 NE8       29.59F HX  87
6HR MIN TEMP:  81; 6HR MAX TEMP:  86; 6HR PCP: TRACE;

EL DORADO      HVY RAIN  77  76  96 E12G22    29.55F VSB 3/4
6HR MIN TEMP:  76; 6HR MAX TEMP:  84; 6HR PCP:  1.23;

DE QUEEN       CLOUDY    80  78  94 NE5       29.60F HX  88
6HR MIN TEMP:  78; 6HR MAX TEMP:  88; 6HR PCP:  0.04;

$$

ARZ056-057-069-230100-
SOUTHEAST ARKANSAS

CITY           SKY/WX    TMP DP  RH WIND       PRES   REMARKS
PINE BLUFF     CLOUDY    80  76  87 SE15      29.63F HX  86
6HR MIN TEMP:  77; 6HR MAX TEMP:  84; 6HR PCP:  0.55;

STUTTGART      CLOUDY   N/A N/A N/A SE15      29.67S
                                      6HR PCP:  0.16;

MONTICELLO     CLOUDY    80  75  84 SE9       29.63F HX  85
6HR MIN TEMP:  80; 6HR MAX TEMP:  83; 6HR PCP:  0.17;


$$






USA.gov is the U.S. government's official web portal to all federal, state and local government web resources and services.